Location: Bagong Pook
(14.2541°N, 120.8791°E)
Time: 02:24:59
(UTC+00:00)

Cosmos 2369 Rocket - Pass Details

Date: 13 January 2026
Orbit: 827 x 853 km, 71.0° (Epoch: 16 February)

Event Time Altitude Azimuth Distance (km) Brightness Sun altitude
Rises 10:29:00 0° 337° (NNW) 3,402 5.4 -10.6°
Reaches altitude 10° 10:31:29 10° 334° (NNW) 2,463 4.7 -11.1°
Maximum altitude 10:37:02 60° 255° (WSW) 954 2.8 -12.4°
Drops below altitude 10° 10:42:33 10° 176° (S) 2,444 4.8 -13.7°
Sets 10:45:01 0° 172° (S) 3,373 5.5 -14.2°
